Location: Gollag?dem
(17.0207°N, 80.7261°E)
Time: 06:29:13
(UTC+00:00)

Okean O Rocket - Pass Details

Date: 03 August 2024
Orbit: 618 x 638 km, 98.1° (Epoch: 10 September)

Event Time Altitude Azimuth Distance (km) Brightness Sun altitude
Exits shadow 14:54:41 45° 31° (NNE) 847 2.1 -24.1°
Drops below altitude 10° 14:57:58 10° 359° (N) 1,986 4.5 -24.8°
Sets 15:00:11 0° 355° (N) 2,896 5.5 -25.3°
